"Pseudo-MPEC" for P10Iju2

Created 2018 Jul 17 17:18:08 UT using Find_Orb

Click here for an explanation of pseudo-MPECs

 
 Astrometry: 
     P10Iju2  C2018 07 10mBAstrometry`/\V\-h\xD[Gr7C.n]fYt[eT_XvEY`3v\o)%+'#fF51
     P10Iju2  C2018 07 10(u$K)LbJ_dD@ORYbOredacted;$A5^.1seeuWncO#O1y-6\Yx,c+F51
     P10Iju2  C2018 07 108l]qT2PO!4]fco4cX=A-NtodVN==mZH+L_W[L-dMun_q(OCNEOCPF51

Station data:
(F51) Pan-STARRS 1, Haleakala  (N20.707235 W156.255910)  US/Hawaii.
   Observers N. Primak, A. Schultz, S. Watters, J. Thiel, T. Goggia. Measurer
   PS1 Science Consortium. 1.8-m Ritchey-Chrétien + CCD.

Orbital elements:  P10Iju2
   Perihelion 2018 Feb 14.577151 +/- 72.2 TT = 13:51:05 (JD 2458164.077151)
Epoch 2018 Jul 11.0 TT = JDT 2458310.5   Earth MOID: 0.0203   Ve: 0.0908
M 162.92161 +/- 120                 (J2000 ecliptic)          AutoNEOCP
n   1.11267893 +/- 0.667            Peri.  189.40731 +/- 80
a   0.92233666 +/- 0.368            Node   293.30121 +/- 32
e   0.1268192 +/- 0.243             Incl.    6.81670 +/- 31
P   0.89/323.54d           H 27.5   G  0.15   U 12.5  SR
q 0.80536666 +/- 0.305    Q 1.03930666 +/- 16.3
From 3 observations 2018 July 10 (29.8 min); mean residual 0".05
Residuals in arcseconds: 
180710 F51  .01-  .04-    180710 F51  .03+  .09+    180710 F51  .01-  .04-    

Ephemerides (geocentric):
Date (UTC) HH   RA              Dec         delta   r     elong  mag " sig PA
---- -- -- --  -------------   -----------  ------ ------ -----  --- ---- ---
2018 07 17 17  20 44 51.558   -07 33 09.27  .02292 1.0380 160.5 20.4  59d  20
2018 07 17 18  20 44 08.109   -07 24 01.38  .02293 1.0380 160.5 20.4  59d  20
2018 07 17 19  20 43 24.721   -07 14 53.73  .02294 1.0380 160.6 20.4  59d  20
2018 07 17 20  20 42 41.396   -07 05 46.35  .02295 1.0380 160.6 20.4  59d  20
2018 07 17 21  20 41 58.134   -06 56 39.25  .02296 1.0380 160.7 20.4  59d  20
2018 07 17 22  20 41 14.936   -06 47 32.47  .02297 1.0380 160.7 20.4  59d  20
2018 07 17 23  20 40 31.803   -06 38 26.03  .02298 1.0381 160.7 20.4  59d  20
2018 07 18 00  20 39 48.736   -06 29 19.95  .02299 1.0381 160.8 20.4  59d  20
2018 07 18 01  20 39 05.736   -06 20 14.26  .02301 1.0381 160.8 20.4  59d  20
2018 07 18 02  20 38 22.803   -06 11 08.99  .02302 1.0381 160.8 20.4  59d  20
2018 07 18 03  20 37 39.939   -06 02 04.16  .02303 1.0381 160.8 20.4  59d  20
2018 07 18 04  20 36 57.143   -05 52 59.80  .02304 1.0381 160.8 20.4  59d  20
2018 07 18 05  20 36 14.418   -05 43 55.92  .02306 1.0381 160.9 20.4  59d  20
2018 07 18 06  20 35 31.763   -05 34 52.56  .02307 1.0381 160.9 20.4  59d  20
2018 07 18 07  20 34 49.179   -05 25 49.73  .02308 1.0381 160.9 20.4  59d  20
2018 07 18 08  20 34 06.668   -05 16 47.46  .02310 1.0382 160.9 20.4  59d  20
2018 07 18 09  20 33 24.230   -05 07 45.78  .02311 1.0382 160.9 20.4  59d  20
2018 07 18 10  20 32 41.865   -04 58 44.71  .02313 1.0382 160.9 20.4  59d  20
2018 07 18 11  20 31 59.575   -04 49 44.26  .02314 1.0382 160.9 20.4  59d  20
2018 07 18 12  20 31 17.360   -04 40 44.48  .02316 1.0382 160.8 20.4  59d  20
2018 07 18 13  20 30 35.220   -04 31 45.37  .02318 1.0382 160.8 20.4  59d  20
2018 07 18 14  20 29 53.158   -04 22 46.96  .02319 1.0382 160.8 20.4  59d  20
2018 07 18 15  20 29 11.172   -04 13 49.27  .02321 1.0382 160.8 20.4  59d  20
2018 07 18 16  20 28 29.265   -04 04 52.33  .02323 1.0382 160.8 20.4  59d  20
2018 07 18 17  20 27 47.436   -03 55 56.16  .02325 1.0383 160.7 20.4  59d  20
2018 07 18 18  20 27 05.687   -03 47 00.78  .02327 1.0383 160.7 20.4  59d  20
2018 07 18 19  20 26 24.017   -03 38 06.21  .02328 1.0383 160.7 20.4  59d  20
2018 07 18 20  20 25 42.428   -03 29 12.48  .02330 1.0383 160.6 20.4  59d  20
2018 07 18 21  20 25 00.921   -03 20 19.59  .02332 1.0383 160.6 20.4  59d  20
2018 07 18 22  20 24 19.495   -03 11 27.59  .02334 1.0383 160.6 20.4  59d  20
2018 07 18 23  20 23 38.152   -03 02 36.48  .02336 1.0383 160.5 20.4  59d  20
2018 07 19 00  20 22 56.892   -02 53 46.29  .02338 1.0383 160.5 20.4  59d  20
2018 07 19 01  20 22 15.716   -02 44 57.04  .02340 1.0383 160.4 20.4  59d  20
2018 07 19 02  20 21 34.625   -02 36 08.74  .02343 1.0383 160.4 20.4  59d  20
2018 07 19 03  20 20 53.618   -02 27 21.43  .02345 1.0384 160.3 20.4  59d  20
2018 07 19 04  20 20 12.697   -02 18 35.11  .02347 1.0384 160.2 20.4  59d  20
2018 07 19 05  20 19 31.862   -02 09 49.81  .02349 1.0384 160.2 20.4  59d  20
2018 07 19 06  20 18 51.113   -02 01 05.55  .02352 1.0384 160.1 20.4  59d  20
2018 07 19 07  20 18 10.452   -01 52 22.34  .02354 1.0384 160.0 20.4  59d  20
2018 07 19 08  20 17 29.879   -01 43 40.21  .02356 1.0384 160.0 20.4  59d  19
2018 07 19 09  20 16 49.394   -01 34 59.17  .02359 1.0384 159.9 20.4  59d  19
2018 07 19 10  20 16 08.998   -01 26 19.25  .02361 1.0384 159.8 20.4  59d  19
2018 07 19 11  20 15 28.692   -01 17 40.45  .02364 1.0384 159.8 20.4  59d  19
2018 07 19 12  20 14 48.475   -01 09 02.80  .02366 1.0384 159.7 20.5  59d  19
2018 07 19 13  20 14 08.349   -01 00 26.32  .02369 1.0385 159.6 20.5  59d  19
2018 07 19 14  20 13 28.314   -00 51 51.01  .02371 1.0385 159.5 20.5  59d  19
2018 07 19 15  20 12 48.370   -00 43 16.91  .02374 1.0385 159.4 20.5  59d  19
2018 07 19 16  20 12 08.518   -00 34 44.03  .02377 1.0385 159.3 20.5  59d  19